Location: Bletchingley
(51.2333°N, 0.1000°W)
Time: 13:24:17
(UTC+00:00)

Cosmos 2098 Rocket - Pass Details

Date: 18 September 2020
Orbit: 366 x 1185 km, 82.9° (Epoch: 22 October)

Event Time Altitude Azimuth Distance (km) Brightness Sun altitude
Rises 20:50:49 0° 350° (N) 4,083 7.9 -24.6°
Reaches altitude 10° 20:53:40 10° 354° (N) 3,084 7.1 -25.0°
Maximum altitude 21:00:55 61° 74° (ENE) 1,205 4.2 -25.8°
Enters shadow 21:01:46 57° 107° (ESE) 1,234 4.1 -25.9°
